IUS DEB, 43363

Orbit data source: Space-Track

IUS DEB, 43363 is space debris in LEO originally from a launch on Fri, 23 Jul 1999 UTC launched from the Air Force Eastern Test Range (AFETR). Debris objects in space refer to the collection of defunct objects orbiting the Earth. Examples of debris include non-operational satellites, rocket bodies, and fragments generated from explosions, collisions, or faulty payload assembly.

Loading next visibility...
IUS DEB details
Identifier
43363, 1999-040L
Orbit
LEO
Last TLE update5 months ago
Origin
Flag of USGSFC (US)
ManufacturerBoeing/Kent
MissionSpacecraft
Bus & MotorUnknown
MassUnknown
Launch date (UTC)
1999-07-23 (25 years ago)
Launch vehicleUnknown
Launch site
Air Force Eastern Test Range (AFETR)
Object type
Payload
Rocket body
Debris
Shape & HBRUnknown
Radar Cross SectionSmall (<0.1 m²)

Expand to show TLE details & history

TLE from 5 months ago
0 IUS DEB
1 43363U 99040L   24207.46150719  .00070672  00000-0  59772-1 0  9992
2 43363  28.2626 265.9531 2342506 219.5053 120.9151 10.05846354  3126
Epoch: 2024-07-25T11:04Z
Definitive object data (Epoch: 2024-07-25T11:04:34.221Z)
Latitude-0°
Longitude156.15964°
Altitude4,079.5 km
Speed5.682 km/s
True Right ascension17h 43m 48s
True Declination0° 00' 00"
Sunlit
Object was in daylight at TLE epoch
Visualization TLE readout
Latitude-24.48723°
Longitude5.59558°
Altitude1,682.485 km
Speed7.367 km/s
Apparent Right ascension05h 08m 27s
Apparent Declination-61° 58' 33"
Sunlit
Object is in daylight
Visualization observer readout
Local Sidereal Time09:40:57
Azimuth208.915° SW
Elevation-25.606°
Doppler factor1
Orbital elements
Apogee altitude4,815.017 km
Perigee altitude566.28 km
Semi-major axis9,068.786 km
Eccentricity0.2342506
Inclination28.2626°
RAAN265.9531°
Arg. of periapsis219.5053°
True anomaly140.54031°
Mean anomaly120.9151°
Eccentric anomaly131.03856°
Mean motion2.51316 °/min
BSTAR0.059772
Orbital period143.25 mins
Loading maneuver chart data...
Loading historical data...
Loading historical data...
Loading historical data...
Loading historical data...
Loading historical data...
Loading historical data...
Loading historical data...

IUS DEB Visibility forecast

Observer location: undefined°, undefined

Span
Click to sort rows by Start time (UTC) header in descending order
Start Az.
Max El. time (UTC)
Max El. Az.
Max El.
End time (UTC)
End Az.
43 mins2024-12-26 13:04:47.696Z200.553° SSW2024-12-26 13:25:47.696Z145.523° SSE29.762°2024-12-26 13:47:47.696Z91.513° ESE
46 mins2024-12-26 15:35:47.696Z233.448° WSW2024-12-26 16:01:47.696Z163.306° S39.512°2024-12-26 16:21:47.696Z96.055° ESE
39 mins2024-12-26 18:11:47.696Z257.928° W2024-12-26 18:36:47.696Z187.756° SSW40.383°2024-12-26 18:50:47.696Z116.172° SE
25 mins2024-12-26 20:51:47.696Z267.424° W2024-12-26 21:07:47.696Z214.463° SW30.505°2024-12-26 21:16:47.696Z155.461° SSE
|